Regional Weather Roundup
Issued by NWS

Home | Current Version | Previous Version | Text Only | Print | Product List | Glossary On
Versions: 1 2 3 4 5 6 7 8 9 10 11 12 13 14 15 16 17 18 19 20 21 22 23 24 25 26 27 28 29 30 31 32 33 34 35 36 37 38 39 40 41 42 43 44 45 46 47 48 49 50
000
ASUS42 KKEY 281410
RWRKEY

FLORIDA REGIONAL WEATHER ROUNDUP FOR THE FLORIDA KEYS
NATIONAL WEATHER SERVICE KEY WEST FLORIDA
900 AM EST TUE FEB 28 2017

...SOUTH FLORIDA AND THE KEYS...

CITY           SKY/WX    TMP DP  RH WIND       PRES   REMARKS
FORT MYERS     MOSUNNY   73  71  93 SE6       30.26R
SW REGIONAL AP MOSUNNY   72  70  93 E8        30.26S
NAPLES         MOSUNNY   77  72  84 SE12      30.25R
MIAMI          MOSUNNY   79  68  69 SE17      30.27R
WEST KENDALL   MOSUNNY   78  69  73 SE16      30.26R
HOMESTEAD      SUNNY     79  73  82 E15       30.26R
MARATHON       SUNNY     81  72  74 E8        30.23R
BOCA CHICA NAS MOSUNNY   79  71  76 E16       30.22R
KEY WEST INTL  MOSUNNY   79  73  82 E13       30.23R

...INTERNATIONAL WEATHER...

CITY           SKY/WX    TMP DP  RH WIND       PRES   REMARKS
NASSAU BAHAMAS MOSUNNY   81  64  57 NE12      30.30R
CANCUN MEXICO  MOSUNNY   81  70  69 E12       30.13R
COZUMEL MEXICO MOSUNNY   81  72  74 SE10      30.09R

ADJACENT COASTAL WATERS...

STATION/POSITION TIME  SKY/WX   TEMP    WIND        PRES    WAVE
                                AIR SEA DIR/SP/G            HT/PER
                 (UTC)          (F)     (DEG/KT/KT) (MB)    (FT/S)
PULASKI SHOAL LI 1400            75      90/ 11/ 12 1023.0R
SAND KEY         1350            77      20/  5/ 19 1023.7R
LONG KEY         1300            77 76  100/ 13/ 16 1023.7R
MOLASSES REEF    1300            77 76  120/ 16/ 18 1024.0R
FOWEY ROCKS      1300            76 75  100/ 19/ 21 1024.8R
Buoy 42097       1400                                 N/A     3/ 4

$$



USA.gov is the U.S. government's official web portal to all federal, state and local government web resources and services.